[[{"header":{"parameterUnit":"m.s-1","parameterCategory":1,"la1":30.2991,"la2":30.254,"lo1":-89.0895,"lo2":-89.0444,"dy":0.0017,"dx":0.0017,"nx":28,"ny":28,"refTime":"2023-08-09T03:00:00:Z","depth":0,"parameterNumber":2,"parameterNumberName":"U-component_of_WINDS"},"data":[0,0,0,0,0,0,0,0,0,0,0,0,0,0,0,0,0,0,0,0,0,0,0,0,0,0,0,0,0,0,0,0,0,0,0,0,0,0,0,0,0,0,0,0,0,0,0,0,0,0,0,0,0,0,0,0,0,0,0.2953,0.2954,0,0.3046,0.3047,0.3048,0.2988,0.2985,0.2982,0.298,0.308,0.3085,0.309,0,0,0,0,0,0,0,0,0,0,0,0,0,0.2729,0.2733,0.2953,0.2954,0.2955,0.3046,0.3047,0.3048,0.2988,0.2985,0.2982,0.2978,0.3078,0.3084,0.3091,0,0,0,0,0,0,0,0,0,0,0,0,0,0.2825,0.2735,0.2953,0.2936,0.2936,0.3046,0.3047,0.3049,0.2989,0.2985,0.2981,0.2977,0.3076,0.3084,0.3092,0.3225,0,0,0.3116,0.3119,0,0,0,0,0,0,0,0,0.2819,0.2833,0.2937,0.2937,0.2937,0.3001,0.3005,0.3108,0.299,0.2969,0.298,0.2975,0.3057,0.3067,0.3093,0.323,0.3234,0.3117,0.3121,0.3125,0.3127,0,0,0,0,0,0,0,0.2813,0.2829,0.299,0.2939,0.2939,0.2926,0.2935,0.3024,0.3036,0.2971,0.2966,0.2978,0.3057,0.3086,0.3095,0.3235,0.3116,0.3123,0.3128,0.3131,0.3487,0.3491,0,0,0,0,0,0,0.2807,0.2823,0.2987,0.2993,0.2866,0.2933,0.2943,0.2985,0.3035,0.3038,0.2981,0.2975,0.3075,0.3086,0.3099,0.3258,0.3125,0.3132,0.3137,0.3482,0.3488,0.3493,0,0,0,0,0,0,0.2802,0.2822,0.2983,0.2907,0.2926,0.2942,0.2989,0.2989,0.3018,0.3043,0.3045,0.3009,0.3072,0.3088,0.3194,0.3261,0.3136,0.3143,0.3477,0.3484,0.349,0.3579,0,0,0,0,0,0,0.2796,0.282,0.287,0.2908,0.2931,0.3075,0.2993,0.2994,0.3031,0.3024,0.3069,0.3073,0.307,0.3182,0.3202,0.327,0.3149,0.3471,0.348,0.3488,0.357,0.3588,0.3603,0,0,0,0,0,0.2788,0.2892,0.2873,0.2893,0.2992,0.3079,0.3092,0.3085,0.3037,0.3088,0.3104,0.3071,0.3251,0.3194,0.3215,0.3286,0.3466,0.3477,0.3487,0.3562,0.3584,0.3603,0,0,0,0,0,0,0.2862,0.2896,0.2876,0.2994,0.3034,0.3069,0.3132,0.3108,0.3164,0.3154,0.3144,0.3155,0.3267,0.3287,0.3223,0.3419,0.3351,0.3367,0.3401,0.3422,0.3438,0.3431,0.3156,0,0,0,0,0,0.2892,0.2958,0.2985,0.3088,0.3108,0.3117,0.3155,0.3146,0.3187,0.3204,0.3228,0.3271,0.3337,0.3381,0.3443,0.3573,0.3582,0.3633,0.3649,0.3663,0.3676,0.3748,0.377,0.3528,0.3527,0.3527,0,0,0.2955,0.2982,0.3024,0.3103,0.3133,0.3203,0.3132,0.3209,0.3261,0.3216,0.3318,0.3337,0.3385,0.3504,0.3557,0.3524,0.3746,0.3676,0.3687,0.3693,0.3761,0.3784,0.3804,0.3535,0.3533,0.3532,0,0,0.3105,0.3131,0.322,0.3251,0.3297,0.3302,0.3324,0.3363,0.3373,0.3475,0.3442,0.3506,0.362,0.3655,0.3688,0.3853,0.3826,0.3874,0.3961,0.4031,0.405,0.4067,0.4127,0.4148,0.3887,0.3887,0.3888,0,0.3177,0.328,0.3269,0.3349,0.3385,0.3347,0.3437,0.3469,0.3533,0.356,0.3522,0.3664,0.3693,0.382,0.3861,0.3889,0.3914,0.3868,0.4048,0.4065,0.4081,0.4137,0.416,0.3893,0.3892,0.3892,0.3891,0,0.3368,0.344,0.3506,0.3568,0.3612,0.3697,0.3701,0.3747,0.3735,0.3745,0.385,0.3883,0.3952,0.3982,0.3971,0.4108,0.4086,0.4048,0.398,0.4109,0.4163,0.4184,0.3901,0.3899,0.3897,0.3896,0,0,0.3566,0.3621,0.3646,0.3674,0.3722,0.3778,0.3863,0.3928,0.3969,0.4015,0.4086,0.4184,0.4149,0.4187,0.418,0.4241,0.4371,0.4196,0.4197,0.4228,0.4525,0.4553,0.4579,0.4353,0.4358,0.4361,0.4522,0,0.3719,0.3864,0.3857,0.3994,0.4061,0.4026,0.41,0.4139,0.4151,0.4211,0.4225,0.4295,0.4243,0.4266,0.4325,0.4343,0.4431,0.4331,0.4421,0.4424,0.441,0.4606,0.4636,0.4786,0.4542,0.4546,0.4548,0,0.3916,0.3968,0.4111,0.415,0.4179,0.4245,0.4305,0.4363,0.4407,0.4411,0.4454,0.4437,0.4525,0.4455,0.4575,0.4508,0.4544,0.4559,0.4565,0.4573,0.4494,0.462,0.4833,0.4856,0.4581,0.4578,0.4576,0,0.4047,0.4153,0.4252,0.4277,0.4326,0.4373,0.4396,0.4435,0.4476,0.4529,0.4556,0.462,0.4655,0.4705,0.4707,0.4656,0.483,0.4759,0.4837,0.4837,0.4875,0.4872,0.5097,0.4899,0.4898,0.4898,0.4898,0,0.4218,0.4307,0.4311,0.4373,0.4472,0.4465,0.4564,0.4582,0.4618,0.4683,0.4658,0.472,0.4719,0.4783,0.4785,0.4885,0.4901,0.4909,0.4908,0.4911,0.491,0.4934,0.4924,0.4904,0.4903,0.4902,0.4901,0,0.438,0.4387,0.4493,0.453,0.4542,0.4613,0.4646,0.4705,0.4715,0.4798,0.4818,0.4834,0.4908,0.4915,0.5002,0.5003,0.5124,0.5113,0.5109,0.5107,0.5184,0.5177,0.5433,0.5466,0.5246,0.5248,0.525,0,0.4489,0.4557,0.4601,0.4643,0.4668,0.4735,0.4776,0.4772,0.4816,0.4872,0.4925,0.4996,0.5053,0.5173,0.5194,0.526,0.525,0.5335,0.526,0.5261,0.5252,0.5247,0.5254,0.535,0.5352,0.5354,0.5356,0,0.4682,0.4682,0.4741,0.4802,0.4852,0.49,0.4945,0.4981,0.4983,0.5035,0.5109,0.5153,0.5241,0.5313,0.5378,0.5403,0.5381,0.538,0.5401,0.5404,0.5399,0.5403,0.5149,0.5374,0.5372,0.537,0.537,0.5369,0.482,0.4879,0.492,0.4987,0.5021,0.5064,0.5122,0.5139,0.5201,0.5271,0.5266,0.5349,0.5393,0.5478,0.5508,0.5574,0.5546,0.5577,0.5585,0.5592,0.56,0.5389,0.5586,0.5586,0.5585,0.5585,0.5584,0,0.5011,0.5036,0.5098,0.5162,0.5216,0.5189,0.5238,0.5285,0.5358,0.5401,0.5457,0.5544,0.5613,0.564,0.5709,0.5756,0.5748,0.5775,0.5771,0.5777,0.5622,0.5596,0.578,0.578,0.578,0.578,0.578,0.578,0.5117,0.5215,0.522,0.5336,0.536,0.544,0.5471,0.5511,0.5545,0.5643,0.57,0.5717,0.5754,0.5825,0.5888,0.5894,0.5921,0.5952,0.5954,0.5808,0.5788,0.5769,0.5745,0.5958,0.5958,0.6103,0.6105,0.6106]},{"header":{"parameterUnit":"m.s-1","parameterCategory":1,"la1":30.2991,"la2":30.254,"lo1":-89.0895,"lo2":-89.0444,"dy":0.0017,"dx":0.0017,"nx":28,"ny":28,"refTime":"2023-08-09T03:00:00:Z","depth":0,"parameterNumber":3,"parameterNumberName":"V-component_of_WINDS"},"data":[0,0,0,0,0,0,0,0,0,0,0,0,0,0,0,0,0,0,0,0,0,0,0,0,0,0,0,0,0,0,0,0,0,0,0,0,0,0,0,0,0,0,0,0,0,0,0,0,0,0,0,0,0,0,0,0,0,0,3.0483,3.0486,0,3.077,3.0773,3.0777,3.0818,3.0816,3.0813,3.0811,3.1107,3.1117,3.1127,0,0,0,0,0,0,0,0,0,0,0,0,0,2.9973,2.9983,3.0483,3.0487,3.049,3.077,3.0774,3.0777,3.0819,3.0816,3.0812,3.0809,3.1103,3.1116,3.1128,0,0,0,0,0,0,0,0,0,0,0,0,0,3.0221,2.9986,3.0482,3.0545,3.0553,3.0769,3.0774,3.0779,3.082,3.0816,3.0812,3.0808,3.1099,3.1114,3.113,3.1304,0,0,3.1177,3.1184,0,0,0,0,0,0,0,0,3.0207,3.024,3.0532,3.0541,3.055,3.0754,3.0702,3.0955,3.0821,3.0718,3.0811,3.0806,3.0993,3.1017,3.1079,3.1318,3.1331,3.1178,3.1188,3.1194,3.1199,0,0,0,0,0,0,0,3.019,3.0228,3.0597,3.0536,3.0547,3.0559,3.059,3.075,3.0874,3.0727,3.0731,3.0764,3.0997,3.1064,3.1087,3.1335,3.1178,3.1192,3.1201,3.1207,3.1732,3.1736,0,0,0,0,0,0,3.0161,3.0213,3.0588,3.0605,3.0365,3.0571,3.0606,3.0693,3.0873,3.0896,3.0767,3.0765,3.104,3.1069,3.1097,3.1314,3.1194,3.1209,3.1218,3.1727,3.1733,3.1738,0,0,0,0,0,0,3.015,3.0194,3.0576,3.041,3.046,3.0584,3.0682,3.0701,3.0768,3.0903,3.0925,3.0813,3.1038,3.1075,3.1252,3.1325,3.1216,3.123,3.1722,3.1729,3.1735,3.1748,0,0,0,0,0,0,3.0135,3.019,3.0257,3.0411,3.0468,3.0726,3.0686,3.0709,3.0794,3.0794,3.0952,3.0974,3.1038,3.1229,3.1268,3.1344,3.1242,3.1716,3.1725,3.1733,3.1741,3.1754,3.1765,0,0,0,0,0,3.0117,3.025,3.026,3.0305,3.0555,3.073,3.0763,3.0832,3.08,3.0869,3.0955,3.0969,3.131,3.1247,3.1291,3.1373,3.1711,3.1722,3.1732,3.1736,3.1752,3.1765,0,0,0,0,0,0,3.0102,3.0271,3.0285,3.0471,3.0586,3.0737,3.0826,3.0847,3.0973,3.0968,3.105,3.1085,3.1258,3.1333,3.1259,3.1551,3.1508,3.1528,3.1496,3.1512,3.1523,3.1502,3.1255,0,0,0,0,0,3.012,3.0247,3.0388,3.054,3.0596,3.0701,3.078,3.0823,3.0946,3.0994,3.1094,3.1213,3.1347,3.1433,3.1564,3.1752,3.1787,3.183,3.1842,3.1851,3.1867,3.1972,3.1993,3.1772,3.1772,3.1772,0,0,3.0159,3.0267,3.0343,3.0539,3.0633,3.0764,3.0742,3.0881,3.0979,3.1016,3.1189,3.1266,3.1404,3.1587,3.1673,3.1655,3.1936,3.1864,3.187,3.1882,3.1985,3.2006,3.2024,3.1779,3.1778,3.1776,0,0,3.0298,3.0392,3.0528,3.0622,3.0764,3.0833,3.0865,3.1013,3.1066,3.124,3.1271,3.1389,3.1618,3.1714,3.1794,3.1967,3.1985,3.2008,3.207,3.2172,3.2189,3.2205,3.2267,3.2289,3.2023,3.2023,3.2024,0,3.0329,3.0526,3.0596,3.0734,3.082,3.0858,3.0997,3.1085,3.1263,3.1321,3.1298,3.1586,3.1682,3.1888,3.193,3.1993,3.2033,3.1991,3.2181,3.2197,3.2213,3.2274,3.2297,3.2025,3.2025,3.2025,3.2025,0,3.0558,3.0694,3.0787,3.0957,3.1053,3.119,3.1282,3.137,3.1405,3.1476,3.1653,3.1769,3.1924,3.1976,3.2012,3.2187,3.2172,3.2164,3.2123,3.2235,3.2293,3.2317,3.2028,3.2027,3.2027,3.2026,0,0,3.0697,3.0902,3.0935,3.1012,3.1171,3.1278,3.1417,3.1567,3.1642,3.1763,3.1882,3.2074,3.2067,3.2157,3.2204,3.2293,3.2423,3.2275,3.2279,3.2298,3.2624,3.263,3.2656,3.2435,3.244,3.2444,3.2613,0,3.0855,3.1103,3.117,3.1381,3.1508,3.1545,3.1667,3.1778,3.1847,3.1966,3.2043,3.2178,3.2159,3.2213,3.2303,3.2388,3.249,3.2377,3.2548,3.2553,3.2513,3.2686,3.2693,3.2847,3.2636,3.264,3.2643,0,3.1072,3.1196,3.142,3.1561,3.1617,3.1725,3.1868,3.198,3.2106,3.215,3.225,3.2288,3.2435,3.2385,3.2589,3.251,3.2584,3.2637,3.2644,3.2664,3.2605,3.2711,3.2898,3.2921,3.2679,3.2676,3.2674,0,3.1152,3.1374,3.1537,3.1602,3.1771,3.1846,3.192,3.2042,3.2128,3.2252,3.2309,3.2449,3.2527,3.2635,3.271,3.2666,3.2908,3.2864,3.2949,3.2948,3.3,3.2996,3.3202,3.3045,3.3045,3.3044,3.3044,0,3.1321,3.1457,3.1575,3.1675,3.1828,3.1902,3.2052,3.2127,3.2236,3.2351,3.2392,3.25,3.2593,3.2713,3.2773,3.2933,3.2967,3.3008,3.3022,3.3005,3.3,3.3055,3.3047,3.3051,3.3049,3.3048,3.3047,0,3.1437,3.1521,3.1701,3.1845,3.1885,3.1991,3.2115,3.2214,3.2284,3.243,3.2469,3.258,3.2724,3.2809,3.2991,3.3031,3.3208,3.3218,3.3165,3.3172,3.3253,3.3245,3.3503,3.3541,3.3358,3.336,3.3361,0,3.154,3.1645,3.18,3.188,3.1955,3.2083,3.217,3.2248,3.2337,3.2488,3.2569,3.2715,3.2836,3.3064,3.3161,3.3301,3.3314,3.3395,3.3336,3.3315,3.3317,3.331,3.3321,3.3406,3.3407,3.3409,3.341,0,3.1715,3.1751,3.1875,3.2013,3.2116,3.2229,3.2341,3.2405,3.2501,3.2599,3.2746,3.284,3.3025,3.317,3.3317,3.3394,3.3419,3.3427,3.3455,3.3439,3.3404,3.3424,3.3194,3.3421,3.342,3.3419,3.3419,3.3418,3.1829,3.1923,3.2047,3.2183,3.2276,3.2379,3.2479,3.2561,3.2685,3.2841,3.2879,3.3033,3.3156,3.3356,3.3436,3.3559,3.3546,3.3585,3.3595,3.3604,3.3607,3.3383,3.3586,3.3586,3.3585,3.3585,3.3585,0,3.2006,3.2087,3.2211,3.2367,3.2474,3.2485,3.261,3.27,3.2835,3.2947,3.3064,3.3233,3.3373,3.3481,3.3624,3.3701,3.3716,3.3737,3.3732,3.375,3.361,3.3572,3.3722,3.3722,3.3722,3.3722,3.3722,3.3722,3.2111,3.2272,3.2322,3.2529,3.261,3.2761,3.2831,3.2927,3.3017,3.3203,3.3319,3.3387,3.3498,3.365,3.3779,3.3807,3.3858,3.3877,3.3907,3.3774,3.376,3.3746,3.371,3.3887,3.3887,3.4037,3.4038,3.4039]}]]